Regional Weather Roundup
Issued by NWS

Home | Current Version | Previous Version | Graphics & Text | Print | Product List | Glossary On
Versions: 1 2 3 4 5 6 7 8 9 10 11 12 13 14 15 16 17 18 19 20 21 22 23 24 25 26 27
000
ASUS45 KBOU 222106
RWRCO

WEATHER ROUNDUP FOR COLORADO
NATIONAL WEATHER SERVICE DENVER/BOULDER CO
300 PM MDT TUE APR 22 2014

NOTE: "FAIR" INDICATES FEW OR NO CLOUDS BELOW 12000 FEET WITH NO
SIGNIFICANT WEATHER AND/OR OBSTRUCTIONS TO VISIBILITY.

COZ001>005-013-030-031-222200-
...NORTHWEST COLORADO...

CITY           SKY/WX    TMP DP  RH WIND       PRES   REMARKS
CRAIG          CLOUDY    70  30  22 SW24G39   29.82F
HAYDEN         CLOUDY    66  30  26 SW21G33   29.88S
MEEKER         CLOUDY    69  22  16 SW22G33   29.85F
MOUNT WERNER   CLOUDY    48  23  37 S14G35    30.10F
STEAMBOAT SPGS CLOUDY    65  24  21 SE12      29.87F
WALDEN         CLOUDY    59  27  29 S17G25    29.95F
$$

COZ006>008-011-222200-
...WEST CENTRAL VALLEYS...

CITY           SKY/WX    TMP DP  RH WIND       PRES   REMARKS
GRAND JUNCTION CLOUDY    74  23  15 SW24G32   29.81F
MONTROSE       CLOUDY    75  29  18 S23G33    29.89F
EAGLE          PTSUNNY   61  36  39 W20G44    29.94F
RIFLE          CLOUDY    75  23  14 SW20G35   29.83F
DELTA          NOT AVBL
NUCLA          NOT AVBL
$$

COZ017>023-064>068-222200-
...SOUTHWEST COLORADO...

CITY           SKY/WX    TMP DP  RH WIND       PRES   REMARKS
DURANGO        PTSUNNY   72  25  17 W22G29    29.98F
CORTEZ         MOSUNNY   74  27  17 S17G28    29.93F
PAGOSA SPRINGS PTSUNNY   64  28  25 W5        30.05F
TELLURIDE      PTSUNNY   55  30  38 SE18G29   30.08F
WOLF CREEK PAS PTSUNNY   36  32  87 SW25G39   30.23F
$$

COZ009-010-012-014-032>034-037-058>063-222200-
...CENTRAL COLORADO...

CITY           SKY/WX    TMP DP  RH WIND       PRES   REMARKS
ASPEN          CLOUDY    57  33  40 SE16      30.00F
BUENA VISTA    CLOUDY    58  34  41 E5        30.04F
COPPER MTN     CLOUDY    45  23  42 S10G16    30.21F
BERTHOUD PASS  CLOUDY    36  28  75 MISG      30.25S
COTTONWOOD PAS CLOUDY    52  36  54 SE9       30.13F
GUNNISON       PTSUNNY   64  27  24 SW17G28   30.02F
KREMMLING      CLOUDY    63  23  22 SW18G24   29.96F
LEADVILLE      CLOUDY    50  23  34 S15G22    30.08F
MONARCH PASS   PTSUNNY   45  21  39 SW36G47   30.30F
SALIDA         CLOUDY    66  33  29 E10G18    30.06F
SUNLIGHT       CLOUDY    45  32  61 CALM      30.15R
WILKERSON PASS CLOUDY    45  28  53 S10G18    30.21S
$$

COZ069>075-222200-
...SAN LUIS VALLEY/SANGRE DE CRISTO MOUNTAINS...

CITY           SKY/WX    TMP DP  RH WIND       PRES   REMARKS
ALAMOSA        PTSUNNY   67  29  24 SW29G39   30.04F
LA VETA PASS   NOT AVBL
SAGUACHE       PTSUNNY   64  32  29 SW24G31   30.02F
$$

COZ035-036-038>040-222200-
...NORTHERN COLORADO FRONT RANGE...

CITY           SKY/WX    TMP DP  RH WIND       PRES   REMARKS
DENVER INTL AP PTSUNNY   77  27  15 W14       29.79F
DMNS CITY PARK   N/A     77  26  15 S1G9      29.78F
AURORA         PTSUNNY   77  28  16 SE14G26   29.81F
FRONT RANGE AP PTSUNNY   79  28  15 S9        29.81F
ERIE MUNI ARPT PTSUNNY   76  31  19 SE9       29.79F
BOULDER MUN AP PTSUNNY   73  34  23 CALM      29.79F
CENTENNIAL     CLOUDY    74  28  18 W13G20    29.82F
BROOMFIELD     PTSUNNY   75  30  19 W9        29.83F
FORT COLLINS   PTSUNNY   79  39  24 E9        29.78F
LONGMONT       NOT AVBL
$$

COZ041-046-047-076>085-087-088-222200-
...PIKES PEAK/PALMER DIVIDE AND SOUTHERN FOOTHILLS...

CITY           SKY/WX    TMP DP  RH WIND       PRES   REMARKS
COLO. SPRINGS  PTSUNNY   76  29  17 S22G35    29.89F
A. F. ACADEMY  PTSUNNY   72  27  18 E3        29.88F
ELLICOTT       NOT AVBL
FALCON         PTSUNNY   71  28  20 S22G29    29.94F
FORT CARSON    PTSUNNY   75  33  21 SW16G29   29.87F
LIMON          MOSUNNY   77  28  16 S12G25    29.84F
MONUMENT HILL  PTSUNNY   68  27  21 SW10      29.91F
TRINIDAD       PTSUNNY   67  40  37 NW18      29.94F
$$

COZ042>045-048>051-090-091-222200-
...NORTHEAST COLORADO...

CITY           SKY/WX    TMP DP  RH WIND       PRES   REMARKS
GREELEY ARPT   PTSUNNY   81  30  16 S7        29.77F
AKRON          MOSUNNY   80  32  17 S17G25    29.80F
BURLINGTON     SUNNY     82  36  19 S22G30    29.83F
WRAY           MOSUNNY   85  42  22 S20G28    29.79F
STERLING       NOT AVBL
HOLYOKE        NOT AVBL
FORT MORGAN    NOT AVBL
$$

COZ086-089-092>099-222200-
...SOUTHEAST COLORADO...

CITY           SKY/WX    TMP DP  RH WIND       PRES   REMARKS
PUEBLO         PTSUNNY   74  40  29 VRB5      29.83F
LA JUNTA       MOSUNNY   82  34  17 S16       29.81F
LAMAR          PTSUNNY   83  37  19 S21G33    29.79F
SPRINGFIELD      N/A     79  43  27 SW26G40   29.89F
$$



USA.gov is the U.S. government's official web portal to all federal, state and local government web resources and services.